Holesov, Czech Republic

12:32 AM CEST on March 27, 2017 (GMT +0200)
Holesov

Weather History for LKHO - December, 2013

Change the Weather History Date:

Thursday, December 26, 2013

  Actual Average Record
Temperature  
Mean Temperature 50 °F -  
Max Temperature 53 °F - - ()
Min Temperature 47 °F - - ()
Degree Days  
Heating Degree Days 15    
Moisture  
Dew Point 39 °F    
Average Humidity 54    
Maximum Humidity 79    
Minimum Humidity 46    
Precipitation  
Precipitation 0.01 in - - ()
Sea Level Pressure  
Sea Level Pressure 29.53 in    
Wind  
Wind Speed 20 mph ()    
Max Wind Speed 34 mph    
Max Gust Speed -    
Visibility 13.9 miles    
Events Rain    
T = Trace of Precipitation, MM = Missing Value Source: Averaged Metar Reports

Daily Weather History Graph

Daily Weather History Graph

Search for Another Location

Airport or City:

Trip Planner

Search our weather history database for the weather conditions in past years. The results will help you decide how hot, cold, wet, or windy it might be!

Date:

Astronomy

Dec. 26, 2013 Rise Set
Actual Time 7:44 AM CET 3:56 PM CET
Civil Twilight 7:06 AM CET 4:34 PM CET
Nautical Twilight 6:25 AM CET 5:14 PM CET
Astronomical Twilight 5:47 AM CET 5:53 PM CET
Moon 12:28 AM CET 11:45 AM CET
Length of Visible Light 9h 27m
Length of Day
8h 11m
Last Quarter, 41% of the Moon is Illuminated
Dec 26
Last Quarter
Jan 1
New
Jan 8
First Quarter
Jan 16
Full
Jan 24
Last Quarter

Hourly Weather History & Observations

Time (CET) Temp. Dew Point Humidity Pressure Visibility Wind Dir Wind Speed Gust Speed Precip Events Conditions
12:00 AM 51 °F 38 °F 50% 29.58 in 12 mi SSE 22.4 mph - -  
1:00 AM 51 °F 38 °F 50% 29.57 in 12 mi SSE 24.6 mph - -   Mostly Cloudy
2:00 AM 51 °F 39 °F 52% 29.56 in 12 mi South 22.4 mph - - Rain Light Rain
3:00 AM 51 °F 38 °F 51% 29.55 in 12 mi South 29.1 mph - -   Unknown Precipitation
4:00 AM 51 °F 39 °F 53% 29.54 in 12 mi South 22.4 mph - -   Clear
5:00 AM 52 °F 39 °F 49% 29.53 in 12 mi SSE 26.8 mph - -   Scattered Clouds
6:00 AM 51 °F 38 °F 51% 29.52 in 12 mi South 22.4 mph - -   Partly Cloudy
7:00 AM 53 °F 38 °F 46% 29.50 in 22 mi SSE 33.6 mph - -   Partly Cloudy
8:00 AM 53 °F 38 °F 47% 29.49 in 22 mi SSE 31.3 mph - -   Partly Cloudy
9:00 AM 52 °F 38 °F 48% 29.48 in 31 mi SE 29.1 mph - -   Partly Cloudy
10:00 AM 52 °F 39 °F 51% 29.50 in 31 mi SE 24.6 mph - -   Partly Cloudy
11:00 AM 52 °F 38 °F 48% 29.48 in 31 mi SE 29.1 mph - -   Partly Cloudy
12:00 PM 52 °F 38 °F 47% 29.48 in 31 mi SSE 31.3 mph - -   Partly Cloudy
1:00 PM 52 °F 38 °F 48% 29.44 in 31 mi SSE 31.3 mph - -   Partly Cloudy
2:00 PM 53 °F 39 °F 47% 29.45 in 31 mi SSE 24.6 mph - -   Scattered Clouds
3:00 PM 51 °F 38 °F 50% 29.49 in 31 mi East 6.7 mph - -   Partly Cloudy
4:00 PM 51 °F 39 °F 54% 29.50 in 31 mi ESE 11.2 mph - -   Partly Cloudy
5:00 PM 50 °F 38 °F 54% 29.52 in 19 mi SE 15.7 mph - -   Mostly Cloudy
6:00 PM 49 °F 38 °F 57% 29.53 in 19 mi SE 15.7 mph - -   Overcast
7:00 PM 50 °F 39 °F 56% 29.56 in 19 mi SSE 13.4 mph - -   Overcast
8:00 PM 48 °F 40 °F 67% 29.58 in 19 mi SSE 13.4 mph - -   Overcast
9:00 PM 48 °F 42 °F 71% 29.59 in 12 mi SSE 17.9 mph - - Rain Light Rain
10:00 PM 47 °F 43 °F 79% 29.62 in 12 mi SE 8.9 mph - - Rain Light Rain
11:00 PM 47 °F 43 °F 79% 29.63 in 11 mi SSE 11.2 mph - - Rain Light Drizzle